AFR7316 LGKR-LDSP

Flight info

Callsign AFR7316
Flight time 1h 4m
Altitude 28000
Route OLGAT DCT CRAYE N138 GISAM DCT RILIM
Aircraft A320/M-DE3FGHILORWXY/LB1

Departure

Time 2026-05-06 13:42
Airport Corfu Ioannis Kapodistrias International Airport (LGKR)

Arrival

Time 2026-05-06 14:46
Airport Split Saint Jerome Airport (LDSP)
Time Latitude Longitude Altitude Speed Heading
2026-05-06 12:43 39.60761 19.91331 21 ft 0 kts 80°
2026-05-06 13:32 39.60760 19.91322 21 ft 2 kts 80°
2026-05-06 13:33 39.60757 19.91301 22 ft 2 kts 79°
2026-05-06 13:33 39.60754 19.91280 23 ft 2 kts 78°
2026-05-06 13:33 39.60750 19.91259 20 ft 2 kts 76°
2026-05-06 13:33 39.60746 19.91238 20 ft 2 kts 77°
2026-05-06 13:34 39.60740 19.91219 25 ft 2 kts 32°
2026-05-06 13:34 39.60724 19.91211 22 ft 2 kts 358°
2026-05-06 13:34 39.60717 19.91212 21 ft 0 kts 350°
2026-05-06 13:36 39.60721 19.91211 21 ft 4 kts 350°
2026-05-06 13:37 39.60757 19.91201 22 ft 6 kts 348°
2026-05-06 13:37 39.60796 19.91191 21 ft 5 kts 351°
2026-05-06 13:37 39.60828 19.91184 21 ft 4 kts 351°
2026-05-06 13:37 39.60850 19.91179 22 ft 3 kts 348°
2026-05-06 13:38 39.60864 19.91175 22 ft 2 kts 347°
2026-05-06 13:38 39.60927 19.91158 21 ft 11 kts 349°
2026-05-06 13:38 39.60997 19.91139 22 ft 10 kts 348°
2026-05-06 13:38 39.61058 19.91122 22 ft 8 kts 349°
2026-05-06 13:39 39.61109 19.91109 23 ft 7 kts 348°
2026-05-06 13:39 39.61144 19.91100 23 ft 0 kts 348°
2026-05-06 13:40 39.61160 19.91095 23 ft 5 kts 348°
2026-05-06 13:40 39.61206 19.91067 23 ft 10 kts 316°
2026-05-06 13:40 39.61244 19.90971 23 ft 12 kts 278°
2026-05-06 13:40 39.61215 19.90951 23 ft 5 kts 179°
2026-05-06 13:41 39.61185 19.90957 23 ft 4 kts 168°
2026-05-06 13:41 39.61085 19.90984 22 ft 39 kts 168°
2026-05-06 13:41 39.60558 19.91121 20 ft 112 kts 169°
2026-05-06 13:41 39.59614 19.91370 122 ft 154 kts 168°
2026-05-06 13:42 39.58578 19.91672 817 ft 154 kts 156°
2026-05-06 13:42 39.57802 19.92607 1517 ft 158 kts 116°
2026-05-06 13:42 39.57578 19.94051 2043 ft 177 kts 85°
2026-05-06 13:42 39.57886 19.95707 2411 ft 199 kts 78°
2026-05-06 13:43 39.57832 19.97560 2807 ft 217 kts 112°
2026-05-06 13:43 39.57168 19.99344 3584 ft 221 kts 119°
2026-05-06 13:43 39.56443 20.01124 4457 ft 224 kts 120°
2026-05-06 13:43 39.55699 20.02925 5284 ft 229 kts 120°
2026-05-06 13:44 39.54950 20.04734 6074 ft 233 kts 120°
2026-05-06 13:44 39.54175 20.06601 6865 ft 238 kts 119°
2026-05-06 13:44 39.53387 20.08511 7619 ft 242 kts 119°
2026-05-06 13:44 39.52588 20.10448 8392 ft 246 kts 119°
2026-05-06 13:45 39.51773 20.12422 9165 ft 251 kts 119°
2026-05-06 13:45 39.50559 20.16678 10620 ft 261 kts 82°
2026-05-06 13:45 39.51222 20.18828 11296 ft 260 kts 47°
2026-05-06 13:46 39.52622 20.20267 12040 ft 258 kts 20°
2026-05-06 13:46 39.54347 20.20747 12808 ft 254 kts 353°
2026-05-06 13:46 39.55486 20.20479 13305 ft 252 kts 335°
2026-05-06 13:46 39.56923 20.19242 14040 ft 250 kts 309°
2026-05-06 13:47 39.57740 20.17282 14726 ft 249 kts 282°
2026-05-06 13:47 39.58016 20.15056 15431 ft 251 kts 278°
2026-05-06 13:47 39.58259 20.12802 16141 ft 253 kts 278°
2026-05-06 13:47 39.58583 20.09783 17058 ft 257 kts 278°
2026-05-06 13:48 39.58751 20.08230 17520 ft 259 kts 278°
2026-05-06 13:48 39.59005 20.05912 18207 ft 261 kts 278°
2026-05-06 13:48 39.59262 20.03567 18827 ft 263 kts 278°
2026-05-06 13:48 39.59516 20.01237 19411 ft 266 kts 278°
2026-05-06 13:49 39.59774 19.98854 19995 ft 268 kts 278°
2026-05-06 13:49 39.60036 19.96450 20582 ft 271 kts 278°
2026-05-06 13:49 39.60340 19.94007 20968 ft 282 kts 284°
2026-05-06 13:49 39.60978 19.91509 21100 ft 302 kts 293°
2026-05-06 13:50 39.62007 19.89040 21231 ft 322 kts 303°
2026-05-06 13:50 39.63421 19.86677 21357 ft 341 kts 309°
2026-05-06 13:50 39.64999 19.84271 21488 ft 358 kts 309°
2026-05-06 13:50 39.66639 19.81754 21794 ft 369 kts 309°
2026-05-06 13:51 39.68304 19.79185 22317 ft 374 kts 309°
2026-05-06 13:51 39.69983 19.76590 22881 ft 377 kts 309°
2026-05-06 13:51 39.71683 19.73967 23454 ft 381 kts 309°
2026-05-06 13:51 39.73379 19.71354 23962 ft 384 kts 309°
2026-05-06 13:52 39.75107 19.68691 24458 ft 387 kts 309°
2026-05-06 13:52 39.76849 19.66003 24946 ft 389 kts 308°
2026-05-06 13:52 39.78597 19.63304 25431 ft 391 kts 308°
2026-05-06 13:52 39.80351 19.60589 25902 ft 393 kts 308°
2026-05-06 13:53 39.82113 19.57857 26358 ft 395 kts 308°
2026-05-06 13:53 39.83884 19.55109 26810 ft 397 kts 308°
2026-05-06 13:53 39.85679 19.52356 27242 ft 400 kts 309°
2026-05-06 13:53 39.87559 19.49678 27666 ft 402 kts 311°
2026-05-06 13:54 39.89514 19.47050 28018 ft 405 kts 312°
2026-05-06 13:54 39.91494 19.44464 28096 ft 397 kts 312°
2026-05-06 13:54 39.93409 19.41986 28091 ft 381 kts 312°
2026-05-06 13:54 39.95259 19.39571 28094 ft 374 kts 312°
2026-05-06 13:55 39.98877 19.34750 28097 ft 371 kts 311°
2026-05-06 13:55 40.02448 19.29913 28104 ft 370 kts 311°
2026-05-06 13:56 40.06013 19.25073 28089 ft 370 kts 311°
2026-05-06 13:56 40.09585 19.20242 28089 ft 369 kts 311°
2026-05-06 13:57 40.13155 19.15409 28093 ft 369 kts 311°
2026-05-06 13:57 40.16712 19.10575 28088 ft 369 kts 311°
2026-05-06 13:58 40.20271 19.05732 28081 ft 369 kts 311°
2026-05-06 13:58 40.23869 19.00952 28083 ft 370 kts 316°
2026-05-06 13:59 40.25981 18.98993 28078 ft 375 kts 327°
2026-05-06 13:59 40.28297 18.97408 28080 ft 376 kts 329°
2026-05-06 13:59 40.32945 18.94266 28076 ft 376 kts 328°
2026-05-06 14:00 40.37586 18.91109 28069 ft 376 kts 328°
2026-05-06 14:00 40.42232 18.87938 28068 ft 376 kts 328°
2026-05-06 14:01 40.46884 18.84768 28073 ft 377 kts 328°
2026-05-06 14:01 40.51536 18.81590 28067 ft 377 kts 328°
2026-05-06 14:02 40.56186 18.78403 28068 ft 377 kts 328°
2026-05-06 14:02 40.60812 18.75231 28065 ft 377 kts 328°
2026-05-06 14:03 40.65470 18.72037 28059 ft 378 kts 328°
2026-05-06 14:03 40.70129 18.68833 28059 ft 378 kts 328°
2026-05-06 14:04 40.74793 18.65616 28054 ft 378 kts 328°
2026-05-06 14:04 40.79461 18.62401 28055 ft 378 kts 328°
2026-05-06 14:05 40.84132 18.59182 28052 ft 379 kts 328°
2026-05-06 14:05 40.88767 18.55971 28050 ft 379 kts 328°
2026-05-06 14:06 40.93429 18.52737 28050 ft 379 kts 328°
2026-05-06 14:06 40.98100 18.49495 28052 ft 379 kts 328°
2026-05-06 14:07 41.02767 18.46250 28048 ft 379 kts 328°
2026-05-06 14:07 41.07436 18.43002 28045 ft 379 kts 328°
2026-05-06 14:08 41.12105 18.39749 28045 ft 379 kts 327°
2026-05-06 14:08 41.16778 18.36487 28048 ft 379 kts 327°
2026-05-06 14:09 41.21448 18.33219 28044 ft 379 kts 327°
2026-05-06 14:09 41.26122 18.29941 28045 ft 379 kts 327°
2026-05-06 14:10 41.30793 18.26668 28042 ft 379 kts 327°
2026-05-06 14:10 41.35461 18.23384 28046 ft 380 kts 327°
2026-05-06 14:11 41.40134 18.20093 28041 ft 380 kts 327°
2026-05-06 14:11 41.44797 18.16796 28040 ft 380 kts 327°
2026-05-06 14:12 41.49463 18.13493 28040 ft 380 kts 327°
2026-05-06 14:12 41.53885 18.09734 28039 ft 376 kts 321°
2026-05-06 14:13 41.58252 18.05875 28037 ft 376 kts 321°
2026-05-06 14:13 41.62608 18.02007 28036 ft 376 kts 321°
2026-05-06 14:14 41.66967 17.98120 28037 ft 376 kts 321°
2026-05-06 14:14 41.71292 17.94270 28033 ft 376 kts 321°
2026-05-06 14:15 41.75643 17.90394 28034 ft 376 kts 321°
2026-05-06 14:15 41.79995 17.86505 28029 ft 376 kts 321°
2026-05-06 14:16 41.84341 17.82616 28031 ft 376 kts 321°
2026-05-06 14:16 41.88687 17.78715 28026 ft 376 kts 321°
2026-05-06 14:17 41.92883 17.74593 28029 ft 370 kts 312°
2026-05-06 14:17 41.96644 17.69867 28024 ft 370 kts 312°
2026-05-06 14:18 42.00407 17.65140 28022 ft 370 kts 312°
2026-05-06 14:18 42.04167 17.60411 28021 ft 370 kts 312°
2026-05-06 14:19 42.07924 17.55672 28022 ft 370 kts 312°
2026-05-06 14:19 42.11680 17.50930 28020 ft 370 kts 312°
2026-05-06 14:20 42.15436 17.46181 28019 ft 370 kts 312°
2026-05-06 14:20 42.19158 17.41463 28022 ft 370 kts 312°
2026-05-06 14:21 42.22899 17.36706 28014 ft 369 kts 312°
2026-05-06 14:21 42.26642 17.31947 28015 ft 369 kts 312°
2026-05-06 14:22 42.30378 17.27187 28016 ft 369 kts 312°
2026-05-06 14:22 42.34116 17.22416 28016 ft 369 kts 312°
2026-05-06 14:23 42.37846 17.17650 28006 ft 369 kts 312°
2026-05-06 14:23 42.41574 17.12871 28004 ft 369 kts 312°
2026-05-06 14:24 42.45300 17.08086 28008 ft 369 kts 312°
2026-05-06 14:24 42.49022 17.03299 28003 ft 369 kts 312°
2026-05-06 14:25 42.50876 17.00918 27820 ft 365 kts 312°
2026-05-06 14:25 42.52707 16.98566 27555 ft 361 kts 312°
2026-05-06 14:25 42.54521 16.96234 27296 ft 359 kts 311°
2026-05-06 14:25 42.56330 16.93905 27046 ft 358 kts 311°
2026-05-06 14:26 42.58127 16.91586 26795 ft 356 kts 311°
2026-05-06 14:26 42.59912 16.89280 26526 ft 351 kts 311°
2026-05-06 14:26 42.61669 16.87009 26128 ft 347 kts 311°
2026-05-06 14:26 42.63414 16.84749 25702 ft 345 kts 311°
2026-05-06 14:27 42.65142 16.82508 25276 ft 342 kts 311°
2026-05-06 14:27 42.66685 16.80098 24823 ft 336 kts 302°
2026-05-06 14:27 42.68080 16.77557 24376 ft 335 kts 302°
2026-05-06 14:27 42.69458 16.75063 23936 ft 334 kts 303°
2026-05-06 14:28 42.70870 16.72517 23457 ft 333 kts 303°
2026-05-06 14:28 42.72250 16.70029 22984 ft 332 kts 303°
2026-05-06 14:28 42.73632 16.67536 22542 ft 329 kts 303°
2026-05-06 14:28 42.75005 16.65059 22097 ft 327 kts 303°
2026-05-06 14:29 42.76368 16.62590 21681 ft 325 kts 303°
2026-05-06 14:29 42.77720 16.60131 21261 ft 324 kts 303°
2026-05-06 14:29 42.79066 16.57678 20846 ft 322 kts 303°
2026-05-06 14:29 42.80406 16.55240 20432 ft 321 kts 303°
2026-05-06 14:30 42.81745 16.52801 20009 ft 321 kts 303°
2026-05-06 14:30 42.83077 16.50375 19610 ft 320 kts 303°
2026-05-06 14:30 42.84411 16.47943 19200 ft 320 kts 303°
2026-05-06 14:30 42.85740 16.45518 18800 ft 320 kts 303°
2026-05-06 14:31 42.87070 16.43092 18395 ft 320 kts 303°
2026-05-06 14:31 42.88402 16.40657 17953 ft 320 kts 303°
2026-05-06 14:31 42.89729 16.38229 17548 ft 318 kts 303°
2026-05-06 14:31 42.91052 16.35809 17150 ft 317 kts 303°
2026-05-06 14:32 42.92366 16.33407 16766 ft 315 kts 303°
2026-05-06 14:32 42.93654 16.31045 16386 ft 314 kts 303°
2026-05-06 14:32 42.94957 16.28653 16004 ft 313 kts 303°
2026-05-06 14:32 42.96255 16.26266 15626 ft 313 kts 303°
2026-05-06 14:33 42.97547 16.23883 15238 ft 312 kts 303°
2026-05-06 14:33 42.98836 16.21508 14859 ft 311 kts 303°
2026-05-06 14:33 43.00126 16.19132 14479 ft 311 kts 303°
2026-05-06 14:33 43.01413 16.16763 14097 ft 310 kts 303°
2026-05-06 14:34 43.02701 16.14390 13705 ft 310 kts 302°
2026-05-06 14:34 43.03984 16.12031 13299 ft 309 kts 302°
2026-05-06 14:34 43.04848 16.10443 13041 ft 308 kts 303°
2026-05-06 14:34 43.06123 16.08093 12651 ft 307 kts 302°
2026-05-06 14:35 43.07372 16.05787 12278 ft 305 kts 303°
2026-05-06 14:35 43.08628 16.03460 11885 ft 303 kts 302°
2026-05-06 14:35 43.09878 16.01142 11499 ft 302 kts 302°
2026-05-06 14:35 43.11120 15.98837 11110 ft 300 kts 302°
2026-05-06 14:36 43.12356 15.96541 10717 ft 299 kts 302°
2026-05-06 14:36 43.13588 15.94250 10314 ft 298 kts 303°
2026-05-06 14:36 43.14857 15.92002 9909 ft 300 kts 310°
2026-05-06 14:36 43.16333 15.90020 9616 ft 294 kts 312°
2026-05-06 14:37 43.17789 15.88081 9050 ft 291 kts 312°
2026-05-06 14:37 43.19224 15.86161 8461 ft 284 kts 313°
2026-05-06 14:37 43.20693 15.84390 8008 ft 283 kts 326°
2026-05-06 14:37 43.22557 15.83491 7603 ft 288 kts 353°
2026-05-06 14:38 43.24539 15.83845 7182 ft 291 kts 21°
2026-05-06 14:38 43.26208 15.85404 6712 ft 293 kts 45°
2026-05-06 14:38 43.27640 15.87402 6227 ft 295 kts 46°
2026-05-06 14:38 43.29065 15.89415 5800 ft 293 kts 46°
2026-05-06 14:39 43.30482 15.91421 5357 ft 292 kts 46°
2026-05-06 14:39 43.31877 15.93385 5146 ft 282 kts 46°
2026-05-06 14:39 43.33217 15.95265 5029 ft 268 kts 47°
2026-05-06 14:39 43.34494 15.97052 4915 ft 255 kts 47°
2026-05-06 14:40 43.35709 15.98753 4814 ft 244 kts 48°
2026-05-06 14:40 43.36875 16.00385 4704 ft 237 kts 47°
2026-05-06 14:40 43.38022 16.01994 4606 ft 235 kts 48°
2026-05-06 14:40 43.39165 16.03598 4504 ft 235 kts 48°
2026-05-06 14:41 43.40307 16.05200 4309 ft 234 kts 49°
2026-05-06 14:41 43.41365 16.06902 3939 ft 233 kts 57°
2026-05-06 14:41 43.42318 16.08652 3605 ft 224 kts 60°
2026-05-06 14:41 43.43212 16.10362 3306 ft 216 kts 60°
2026-05-06 14:42 43.44040 16.12015 3053 ft 204 kts 63°
2026-05-06 14:42 43.44848 16.13556 2820 ft 194 kts 60°
2026-05-06 14:42 43.45642 16.14998 2531 ft 187 kts 60°
2026-05-06 14:42 43.46386 16.16329 2315 ft 169 kts 62°
2026-05-06 14:43 43.47081 16.17573 2096 ft 160 kts 62°
2026-05-06 14:43 43.47741 16.18755 1889 ft 152 kts 63°
2026-05-06 14:43 43.48361 16.19862 1698 ft 140 kts 63°
2026-05-06 14:43 43.48940 16.20902 1510 ft 135 kts 64°
2026-05-06 14:44 43.49506 16.21917 1325 ft 131 kts 63°
2026-05-06 14:44 43.50057 16.22906 1140 ft 130 kts 61°
2026-05-06 14:44 43.50610 16.23899 960 ft 130 kts 61°
2026-05-06 14:45 43.51703 16.25861 619 ft 130 kts 55°
2026-05-06 14:45 43.52250 16.26841 438 ft 130 kts 60°
2026-05-06 14:45 43.52806 16.27821 269 ft 129 kts 58°
2026-05-06 14:45 43.53343 16.28795 96 ft 126 kts 57°
2026-05-06 14:46 43.53807 16.29635 75 ft 91 kts 51°
2026-05-06 14:46 43.54086 16.30150 64 ft 51 kts 51°
2026-05-06 14:46 43.54276 16.30486 53 ft 41 kts 52°
2026-05-06 14:46 43.54438 16.30779 51 ft 34 kts 52°
2026-05-06 14:47 43.54549 16.31001 52 ft 17 kts 78°
2026-05-06 14:47 43.54581 16.31053 53 ft 2 kts 310°
2026-05-06 14:47 43.54564 16.31007 52 ft 14 kts 231°
2026-05-06 14:47 43.54477 16.30847 50 ft 25 kts 233°
2026-05-06 14:48 43.54366 16.30649 52 ft 27 kts 232°
2026-05-06 14:48 43.54248 16.30435 59 ft 28 kts 232°
2026-05-06 14:48 43.54132 16.30228 61 ft 24 kts 232°
2026-05-06 14:48 43.54012 16.30101 64 ft 22 kts 196°
2026-05-06 14:49 43.53908 16.30056 68 ft 0 kts 210°
2026-05-06 14:49 43.53892 16.30035 63 ft 11 kts 226°
2026-05-06 14:50 43.53846 16.29951 68 ft 10 kts 233°
2026-05-06 14:50 43.53803 16.29874 68 ft 10 kts 233°
2026-05-06 14:50 43.53762 16.29805 68 ft 8 kts 212°
2026-05-06 14:50 43.53743 16.29828 65 ft 5 kts 108°
2026-05-06 14:51 43.53729 16.29873 65 ft 2 kts 115°
2026-05-06 14:51 43.53728 16.29877 66 ft 0 kts 115°